sat.trackr.live / text

‹ back to catalog

STARLINK-34876

NORAD 65400 · 2025-191X

PAYLOAD ACTIVE UNKNOWN

§ Identity

Operator
Country
US
Launch date
2025-08-30
Launch site
AFWTR
Launch vehicle
Mass (kg)
RCS (m²)

Purposes: comms

External: N2YO · Heavens-Above · Gunter

§ Orbital elements

Epoch: 2026-09-20T20:46:03.624672Z

Period
93.91 min
Inclination
97.2847°
Eccentricity
0.0002095
Mean motion
15.33390215 rev/d
Perigee alt
464.3 km
Apogee alt
467.1 km
Semi-major
6,843.8 km
B*
4.1308e-4
RAAN
129.8800°
Arg perigee
90.4899°
Mean anomaly
269.6584°
Rev number
5,969

§ Raw data

STARLINK-348761 65400U 25191X   26263.86531973  .00013262  00000+0  41308-3 0  99962 65400  97.2847 129.8800 0002095  90.4899 269.6584 15.33390215 59698

JSON: /api/v1/satellites/65400 · /tle

For live sub-satellite position, see the globe view (requires WebGL).

§ Visibility from observer

Set your observer location to see the next 7 days of passes ≥ 10°. The values pass through the URL so the page stays shareable.

No JS? Fill the form by hand. The geolocation button needs JavaScript.